Year,Month,Day,Hour,Minute,Value (Times are PST for temperature in C)
2016,02,17,10,23,7.60
2016,02,17,10,24,7.60
2016,02,17,10,25,7.70
2016,02,17,10,26,7.70
2016,02,17,10,27,7.70
2016,02,17,10,28,7.70
2016,02,17,10,29,7.70
2016,02,17,10,30,7.70
2016,02,17,10,31,7.80
2016,02,17,10,32,7.80
2016,02,17,10,33,7.80
2016,02,17,10,34,7.80
2016,02,17,10,35,7.80
2016,02,17,10,36,7.80
2016,02,17,10,37,7.80
2016,02,17,10,38,7.80
2016,02,17,10,39,7.80
2016,02,17,10,40,7.80
2016,02,17,10,41,7.80
2016,02,17,10,42,7.80
2016,02,17,10,43,7.80
2016,02,17,10,44,7.80
2016,02,17,10,45,7.80
2016,02,17,10,46,7.80
2016,02,17,10,47,7.90
2016,02,17,10,48,7.90
2016,02,17,10,49,7.90
2016,02,17,10,50,7.90
2016,02,17,10,51,7.90
2016,02,17,10,52,7.90
2016,02,17,10,53,7.80
2016,02,17,10,54,7.80
2016,02,17,10,55,7.80
2016,02,17,10,56,7.80
2016,02,17,10,57,7.80
2016,02,17,10,58,7.80
2016,02,17,10,59,7.80
2016,02,17,11,00,7.90
2016,02,17,11,01,7.90
2016,02,17,11,02,7.90
2016,02,17,11,03,7.90
2016,02,17,11,04,7.90
2016,02,17,11,05,7.90
2016,02,17,11,06,7.90
2016,02,17,11,07,7.90
2016,02,17,11,08,7.90
2016,02,17,11,09,8.00
2016,02,17,11,10,8.00
2016,02,17,11,11,8.00
2016,02,17,11,12,8.00
2016,02,17,11,13,8.00
2016,02,17,11,14,8.00
2016,02,17,11,15,8.00
2016,02,17,11,16,8.00
2016,02,17,11,17,8.10
2016,02,17,11,18,8.10
2016,02,17,11,19,8.10
2016,02,17,11,20,8.10
2016,02,17,11,21,8.10
2016,02,17,11,22,8.10
2016,02,17,11,23,8.10
2016,02,17,11,24,8.10
2016,02,17,11,25,8.10
2016,02,17,11,26,8.10
2016,02,17,11,27,8.10
2016,02,17,11,28,8.10
2016,02,17,11,29,8.10
2016,02,17,11,30,8.10
2016,02,17,11,31,8.10
2016,02,17,11,32,8.10
2016,02,17,11,33,8.10
2016,02,17,11,34,8.20
2016,02,17,11,35,8.20
2016,02,17,11,36,8.20
2016,02,17,11,37,8.20
2016,02,17,11,38,8.20
2016,02,17,11,39,8.20
2016,02,17,11,40,8.20
2016,02,17,11,41,8.20
2016,02,17,11,42,8.20
2016,02,17,11,43,8.20
2016,02,17,11,44,8.20
2016,02,17,11,45,8.20
2016,02,17,11,46,8.20
2016,02,17,11,47,8.20
2016,02,17,11,48,8.20
2016,02,17,11,49,8.20
2016,02,17,11,50,8.20
2016,02,17,11,51,8.20
2016,02,17,11,52,8.20
2016,02,17,11,53,8.20
2016,02,17,11,54,8.30
2016,02,17,11,55,8.30
2016,02,17,11,56,8.30
2016,02,17,11,57,8.30
2016,02,17,11,58,8.30
2016,02,17,11,59,8.40
2016,02,17,12,00,8.40
2016,02,17,12,01,8.30
2016,02,17,12,02,8.40
2016,02,17,12,03,8.40
2016,02,17,12,04,8.40
2016,02,17,12,05,8.40
2016,02,17,12,06,8.40
2016,02,17,12,07,8.40
2016,02,17,12,08,8.40
2016,02,17,12,09,8.40
2016,02,17,12,10,8.50
2016,02,17,12,11,8.50
2016,02,17,12,12,8.50
2016,02,17,12,13,8.50
2016,02,17,12,14,8.50
2016,02,17,12,15,8.50
2016,02,17,12,16,8.50
2016,02,17,12,17,8.50
2016,02,17,12,18,8.50
2016,02,17,12,19,8.50
2016,02,17,12,20,8.50
2016,02,17,12,21,8.60
2016,02,17,12,22,8.60
2016,02,17,12,23,8.60
2016,02,17,12,24,8.60
2016,02,17,12,25,8.60
2016,02,17,12,26,8.70
2016,02,17,12,27,8.70
2016,02,17,12,28,8.70
2016,02,17,12,29,8.70
2016,02,17,12,30,8.70
2016,02,17,12,31,8.70
2016,02,17,12,32,8.60
2016,02,17,12,33,8.60
2016,02,17,12,34,8.60
2016,02,17,12,35,8.60
2016,02,17,12,36,8.60
2016,02,17,12,37,8.60
2016,02,17,12,38,8.70
2016,02,17,12,39,8.70
2016,02,17,12,40,8.70
2016,02,17,12,41,8.70
2016,02,17,12,42,8.70
2016,02,17,12,43,8.70
2016,02,17,12,44,8.70
2016,02,17,12,45,8.70
2016,02,17,12,46,8.70
2016,02,17,12,47,8.70
2016,02,17,12,48,8.70
2016,02,17,12,49,8.70
2016,02,17,12,50,8.70
2016,02,17,12,51,8.80
2016,02,17,12,52,8.80
2016,02,17,12,53,8.80
2016,02,17,12,54,8.80
2016,02,17,12,55,8.80
2016,02,17,12,56,8.80
2016,02,17,12,57,8.80
2016,02,17,12,58,8.80
2016,02,17,12,59,8.80
2016,02,17,13,00,8.80
2016,02,17,13,01,8.90
2016,02,17,13,02,8.90
2016,02,17,13,03,8.90
2016,02,17,13,04,8.90
2016,02,17,13,05,9.00
2016,02,17,13,06,9.00
2016,02,17,13,07,9.00
2016,02,17,13,08,9.00
2016,02,17,13,09,9.00
2016,02,17,13,10,9.00
2016,02,17,13,11,9.10
2016,02,17,13,12,9.10
2016,02,17,13,13,9.10
2016,02,17,13,14,9.10
2016,02,17,13,15,9.20
2016,02,17,13,16,9.20
2016,02,17,13,17,9.20
2016,02,17,13,18,9.20
2016,02,17,13,19,9.20
2016,02,17,13,20,9.20
2016,02,17,13,21,9.20
2016,02,17,13,22,9.20
2016,02,17,13,23,9.30
2016,02,17,13,24,9.30
2016,02,17,13,25,9.30
2016,02,17,13,26,9.30
2016,02,17,13,27,9.30
2016,02,17,13,28,9.30
2016,02,17,13,29,9.30
2016,02,17,13,30,9.30
2016,02,17,13,31,9.30
2016,02,17,13,32,9.40
2016,02,17,13,33,9.40
2016,02,17,13,34,9.40
2016,02,17,13,35,9.40
2016,02,17,13,36,9.40
2016,02,17,13,37,9.40
2016,02,17,13,38,9.40
2016,02,17,13,39,9.50
2016,02,17,13,40,9.50
2016,02,17,13,41,9.50
2016,02,17,13,42,9.50
2016,02,17,13,43,9.50
2016,02,17,13,44,9.50
2016,02,17,13,45,9.50
2016,02,17,13,46,9.50
2016,02,17,13,47,9.50
2016,02,17,13,48,9.50
2016,02,17,13,49,9.50
2016,02,17,13,50,9.50
2016,02,17,13,51,9.50
2016,02,17,13,52,9.50
2016,02,17,13,53,9.50
2016,02,17,13,54,9.50
2016,02,17,13,55,9.50
2016,02,17,13,56,9.50
2016,02,17,13,57,9.50
2016,02,17,13,58,9.60
2016,02,17,13,59,9.60
2016,02,17,14,00,9.60
2016,02,17,14,01,9.60
2016,02,17,14,02,9.60
2016,02,17,14,03,9.60
2016,02,17,14,04,9.60
2016,02,17,14,05,9.50
2016,02,17,14,06,9.50
2016,02,17,14,07,9.50
2016,02,17,14,08,9.50
2016,02,17,14,09,9.40
2016,02,17,14,10,9.40
2016,02,17,14,11,9.40
2016,02,17,14,12,9.40
2016,02,17,14,13,9.40
2016,02,17,14,14,9.40
2016,02,17,14,15,9.30
2016,02,17,14,16,9.30
2016,02,17,14,17,9.30
2016,02,17,14,18,9.30
2016,02,17,14,19,9.30
2016,02,17,14,20,9.30
2016,02,17,14,21,9.30
2016,02,17,14,22,9.30
2016,02,17,14,23,9.30
2016,02,17,14,24,9.30
2016,02,17,14,25,9.20
2016,02,17,14,26,9.20
2016,02,17,14,27,9.20
2016,02,17,14,28,9.20
2016,02,17,14,29,9.20
2016,02,17,14,30,9.20
2016,02,17,14,31,9.20
2016,02,17,14,32,9.20
2016,02,17,14,33,9.20
2016,02,17,14,34,9.20
2016,02,17,14,35,9.20
2016,02,17,14,36,9.20
